Terminal Aerodrome Forecast
Issued by NWS Des Moines, IA

Home | Current Version | Previous Version | Text Only | Print | Product List | Glossary On
Versions: 1 2 3 4 5 6 7 8 9 10 11 12 13 14 15 16 17 18 19 20 21 22 23 24
000
FTUS43 KDMX 250538
TAFDSM
TAF
KDSM 250538Z 2506/2606 16011KT P6SM FEW060 SCT150
     FM250730 16012G18KT P6SM VCTS SCT035CB BKN060 OVC120
     FM251500 18015G22KT P6SM SCT035 BKN150
     FM260000 VRB06KT P6SM FEW040=

USA.gov is the U.S. government's official web portal to all federal, state and local government web resources and services.